Terminal Aerodrome Forecast
Issued by NWS

Home | Current Version | Previous Version | Text Only | Print | Product List | Glossary On
Versions: 1 2 3 4 5 6 7 8 9 10 11 12 13 14 15 16 17
000
FTAK31 PAJN 222300
TAFAWG
TAF
PAWG 222320Z 2300/2324 VRB04KT P6SM VCSH FEW030 SCT050 BKN150
     FM230500 VRB02KT P6SM SCT050 SCT100
     FM231000 00000KT P6SM VCFG FEW002 BKN100
     FM231500 32005KT P6SM BKN100
     FM231800 32006KT P6SM SCT120
      AMD LTD TO CLD VIS AND WIND 2306/2315=

USA.gov is the U.S. government's official web portal to all federal, state and local government web resources and services.